Terug naar catalogus

STARLINK-34653

ActiefCommunicatieVLEO
NORAD 64917·PAYLOAD·🇺🇸 United States

Gelanceerd Jul 26, 2025 vanaf Cape Canaveral Space Force Station

Loading…

Volgende Passages (komende 24 uur)

TLE

VersSource: CelesTrak SupGP

Epoch: Sep 15, 2026, 03:22 UTC

1 64917C 25157P   26258.14076389 -.00044281  00000+0 -14239-2 0  2587
2 64917  53.1591 184.5265 0001387  86.6700 356.4577 15.31724575    18

Volg STARLINK-34653 in realtime met AllMySat

Download on the App Store